Time,TemperatureF,DewpointF,PressureIn,WindDirection,WindDirectionDegrees,WindSpeedMPH,WindSpeedGustMPH,Humidity,HourlyPrecipIn,Conditions,Clouds,dailyrainin,SolarRadiationWatts/m^2,SoftwareType,DateUTC
2013-07-16 12:43:00,90.0,72.0,-100.00,SSW,212,4.0,9.0,55,-99.99,,,0.00,692.000000,,2013-07-16 17:43:00,
2013-07-16 12:53:00,90.0,72.0,-100.00,SSW,212,4.0,9.0,55,-99.99,,,0.00,692.000000,,2013-07-16 17:53:00,
2013-07-16 13:01:00,90.0,72.0,-100.00,SSW,212,4.0,9.0,55,-99.99,,,0.00,692.000000,,2013-07-16 18:01:00,
2013-07-16 13:11:00,90.0,72.0,-100.00,SSW,212,4.0,9.0,55,-99.99,,,0.00,692.000000,,2013-07-16 18:11:00,
2013-07-16 13:33:00,89.0,72.0,-100.00,SW,217,4.0,12.0,58,0.00,,,-99.99,604.000000,,2013-07-16 18:33:00,
2013-07-16 13:43:00,89.0,72.0,-100.00,SW,217,4.0,12.0,58,0.00,,,-99.99,604.000000,,2013-07-16 18:43:00,
2013-07-16 13:53:00,89.0,72.0,-100.00,SW,217,4.0,12.0,58,0.00,,,-99.99,604.000000,,2013-07-16 18:53:00,
2013-07-16 14:01:00,89.0,72.0,-100.00,SW,217,4.0,12.0,58,0.00,,,-99.99,604.000000,,2013-07-16 19:01:00,
2013-07-16 14:11:00,89.0,72.0,-100.00,SW,217,4.0,12.0,58,0.00,,,-99.99,604.000000,,2013-07-16 19:11:00,
2013-07-16 14:43:00,91.0,73.0,-100.00,West,275,5.0,10.0,55,0.00,,,0.00,617.000000,,2013-07-16 19:43:00,
2013-07-16 14:52:00,91.0,73.0,-100.00,West,275,5.0,10.0,55,0.00,,,0.00,617.000000,,2013-07-16 19:52:00,
2013-07-16 15:03:00,91.0,73.0,-100.00,West,275,5.0,10.0,55,0.00,,,0.00,617.000000,,2013-07-16 20:03:00,
2013-07-16 15:11:00,91.0,73.0,-100.00,West,275,5.0,10.0,55,0.00,,,0.00,617.000000,,2013-07-16 20:11:00,
2013-07-16 15:43:00,92.0,71.0,-100.00,SSW,206,6.0,12.0,50,0.00,,,0.00,753.000000,,2013-07-16 20:43:00,
2013-07-16 15:52:00,92.0,71.0,-100.00,SSW,206,6.0,12.0,50,0.00,,,0.00,753.000000,,2013-07-16 20:52:00,
2013-07-16 16:01:00,92.0,71.0,-100.00,SSW,206,6.0,12.0,50,0.00,,,0.00,753.000000,,2013-07-16 21:01:00,
2013-07-16 16:11:00,92.0,71.0,-100.00,SSW,206,6.0,12.0,50,0.00,,,0.00,753.000000,,2013-07-16 21:11:00,
2013-07-16 16:43:00,87.0,77.0,-100.00,ENE,57,0.0,15.0,72,0.07,,,0.07,433.000000,,2013-07-16 21:43:00,
2013-07-16 16:52:00,87.0,77.0,-100.00,ENE,57,0.0,15.0,72,0.07,,,0.07,433.000000,,2013-07-16 21:52:00,
2013-07-16 17:01:00,87.0,77.0,-100.00,ENE,57,0.0,15.0,72,0.07,,,0.07,433.000000,,2013-07-16 22:01:00,
2013-07-16 17:11:00,87.0,77.0,-100.00,ENE,57,0.0,15.0,72,0.07,,,0.07,433.000000,,2013-07-16 22:11:00,
2013-07-16 17:43:00,90.0,75.0,-100.00,SSW,205,5.0,9.0,61,0.00,,,0.07,542.000000,,2013-07-16 22:43:00,
2013-07-16 17:52:00,90.0,75.0,-100.00,SSW,205,5.0,9.0,61,0.00,,,0.07,542.000000,,2013-07-16 22:52:00,
2013-07-16 18:01:00,90.0,75.0,-100.00,SSW,205,5.0,9.0,61,0.00,,,0.07,542.000000,,2013-07-16 23:01:00,
2013-07-16 18:11:00,90.0,75.0,-100.00,SSW,205,5.0,9.0,61,0.00,,,0.07,542.000000,,2013-07-16 23:11:00,
2013-07-16 18:32:00,89.0,74.0,-100.00,SW,220,2.0,9.0,61,0.00,,,0.07,278.000000,,2013-07-16 23:32:00,
2013-07-16 18:43:00,89.0,74.0,-100.00,SW,220,2.0,9.0,61,0.00,,,0.07,278.000000,,2013-07-16 23:43:00,
2013-07-16 18:52:00,89.0,74.0,-100.00,SW,220,2.0,9.0,61,0.00,,,0.07,278.000000,,2013-07-16 23:52:00,
2013-07-16 19:01:00,89.0,74.0,-100.00,SW,220,2.0,9.0,61,0.00,,,0.07,278.000000,,2013-07-17 00:01:00,
2013-07-16 19:11:00,89.0,74.0,-100.00,SW,220,2.0,9.0,61,0.00,,,0.07,278.000000,,2013-07-17 00:11:00,
2013-07-16 20:43:00,84.0,73.0,-100.00,SW,214,1.0,6.0,70,-99.99,,,-99.99,74.000000,,2013-07-17 01:43:00,
2013-07-16 20:53:00,84.0,73.0,-100.00,SW,214,1.0,6.0,70,-99.99,,,-99.99,74.000000,,2013-07-17 01:53:00,
2013-07-16 21:01:00,84.0,73.0,-100.00,SW,214,1.0,6.0,70,-99.99,,,-99.99,74.000000,,2013-07-17 02:01:00,
2013-07-16 21:11:00,84.0,73.0,-100.00,SW,214,1.0,6.0,70,-99.99,,,-99.99,74.000000,,2013-07-17 02:11:00,
2013-07-16 21:32:00,80.0,74.0,-100.00,SSW,201,2.0,3.0,83,0.00,,,0.07,4.000000,,2013-07-17 02:32:00,
2013-07-16 21:43:00,80.0,74.0,-100.00,SSW,201,2.0,3.0,83,0.00,,,0.07,4.000000,,2013-07-17 02:43:00,
2013-07-16 21:53:00,80.0,74.0,-100.00,SSW,201,2.0,3.0,83,0.00,,,0.07,4.000000,,2013-07-17 02:53:00,
2013-07-16 22:01:00,80.0,74.0,-100.00,SSW,201,2.0,3.0,83,0.00,,,0.07,4.000000,,2013-07-17 03:01:00,
2013-07-16 22:11:00,80.0,74.0,-100.00,SSW,201,2.0,3.0,83,0.00,,,0.07,4.000000,,2013-07-17 03:11:00,
2013-07-16 22:43:00,78.0,73.0,-100.00,SSW,194,3.0,5.0,86,0.00,,,0.07,0.000000,,2013-07-17 03:43:00,
2013-07-16 22:53:00,78.0,73.0,-100.00,SSW,194,3.0,5.0,86,0.00,,,0.07,0.000000,,2013-07-17 03:53:00,
2013-07-16 23:01:00,78.0,73.0,-100.00,SSW,194,3.0,5.0,86,0.00,,,0.07,0.000000,,2013-07-17 04:01:00,
2013-07-16 23:11:00,78.0,73.0,-100.00,SSW,194,3.0,5.0,86,0.00,,,0.07,0.000000,,2013-07-17 04:11:00,
2013-07-16 23:43:00,75.0,73.0,-100.00,South,169,0.0,4.0,94,0.00,,,-99.99,0.000000,,2013-07-17 04:43:00,
2013-07-16 23:53:00,75.0,73.0,-100.00,South,169,0.0,4.0,94,0.00,,,-99.99,0.000000,,2013-07-17 04:53:00,